Flag for U.S.A. Weather past 2 weeks in Riverside, California, U.S.A.

Now
51 °F

Fog.


Feels Like: 51 °F
Forecast: 48 / 68 °F
Wind: No wind

Location: Riverside Municipal Airport

Current Time: Jan 31, 2015 at 8:35:49 AM

Latest Report: Jan 31, 2015 at 7:53 AM


Visibility: 4 mi

Pressure: 29.87 "Hg

Humidity: 92%

Dew point: 49 °F

Location of RiversideLocation

Historic Weather in Riverside — Graph

°F

Riverside temperature yesterday

Maximum temperature yesterday: 66 °F (at 12:53 PM)
Minimum temperature yesterday: 55 °F (at 8:53 PM)
Average temperature yesterday: 60 °F

Past Weeks' High & Low Weather Summary

 TemperatureHumidityPressure
High82 °F (Jan 25, 12:53 PM)97% (Jan 26, 11:53 PM)30.24 "Hg (Jan 26, 11:53 PM)
Low45 °F (Jan 17, 1:53 AM)7% (Jan 22, 1:53 PM)29.80 "Hg (Jan 30, 2:53 PM)
Average61 °F47%30.05 "Hg
* Reported Jan 16 6:53 AM — Jan 31 6:53 AM, Riverside, Weather by CustomWeather, © 2014

Note: Actual official high and low records may vary slightly from our data, if they occured in-between our weather recording intervals... More about our weather records

Advertising

Riverside weather history for previous 24 hours

 ConditionsComfort  
Time TempWeatherWind HumidityBarometerVisibility
6:53 AM
Jan 31
51 °FSunny.No wind92%29.85 "Hg8 mi
5:53 AM52 °FClear.No wind93%29.83 "Hg10 mi
4:53 AM52 °FClear.No wind93%29.81 "Hg8 mi
3:53 AM53 °FFog.No wind89%29.81 "Hg6 mi
2:53 AM53 °FPassing clouds.No wind93%29.82 "Hg9 mi
1:53 AM53 °FMostly cloudy.No wind93%29.83 "Hg10 mi
12:53 AM54 °FPassing clouds.No wind90%29.83 "Hg10 mi
11:53 PM
Jan 30
55 °FPassing clouds.No wind90%29.85 "Hg10 mi
10:53 PM55 °FClear.3 mph87%29.85 "Hg10 mi
9:53 PM56 °FClear.No wind87%29.85 "Hg10 mi
8:53 PM55 °FClear.No wind93%29.84 "Hg10 mi
7:53 PM56 °FClear.3 mph90%29.83 "Hg10 mi
6:53 PM57 °FClear.3 mph87%29.83 "Hg10 mi
5:53 PM57 °FMostly cloudy.3 mph81%29.83 "Hg10 mi
4:53 PM65 °FOvercast.6 mph52%29.81 "Hg10 mi
3:53 PM65 °FMostly cloudy.6 mph52%29.80 "Hg10 mi
2:53 PM64 °FOvercast.5 mph54%29.80 "Hg10 mi
1:53 PM66 °FOvercast.6 mph47%29.82 "Hg10 mi
12:53 PM66 °FMore clouds than sun.No wind47%29.83 "Hg10 mi
11:53 AM65 °FOvercast.3 mph49%29.86 "Hg10 mi
10:53 AM65 °FOvercast.3 mph51%29.88 "Hg10 mi
9:53 AM63 °FOvercast.No wind56%29.90 "Hg10 mi
8:53 AM60 °FOvercast.5 mph65%29.89 "Hg10 mi
Weather by CustomWeather, © 2014

See weather overviewHow to use our weather pages